Flag for Faroe Islands Weather past 2 weeks in Tórshavn, Faroe Islands, Faroe Islands

Now
36 °F

Light freezing rain. Passing clouds.


Feels Like: 21 °F
Forecast: 33 / 35 °F
Wind: 40 mph from North

Location: Soervaag / Vagar

Current Time: Jan 31, 2015 at 1:23:01 AM

Latest Report: Jan 31, 2015 at 12:50 AM


Visibility: N/A

Pressure: 29.33 "Hg

Humidity: 56%

Dew point: 21 °F

Location of TórshavnLocation

Historic Weather in Tórshavn — Graph

°F

Tórshavn temperature yesterday

Maximum temperature yesterday: 36 °F (at 12:20 AM)
Minimum temperature yesterday: 32 °F (at 9:20 AM)
Average temperature yesterday: 34 °F

Past Weeks' High & Low Weather Summary

 TemperatureHumidityPressure
High48 °F (Jan 25, 10:20 AM)100% (Jan 15, 11:20 PM)30.18 "Hg (Jan 15, 11:20 PM)
Low23 °F (Jan 19, 4:50 AM)53% (Jan 25, 10:20 PM)28.62 "Hg (Jan 15, 11:20 PM)
Average37 °F83%29.43 "Hg
* Reported Jan 15 11:20 PM — Jan 30 11:50 PM, Tórshavn, Weather by CustomWeather, © 2014

Note: Actual official high and low records may vary slightly from our data, if they occured in-between our weather recording intervals... More about our weather records

Advertising

Tórshavn weather history for previous 24 hours

 ConditionsComfort  
Time TempWeatherWind HumidityBarometerVisibility
11:50 PM
Jan 30
36 °FLight freezing rain. Passing clouds.37 mph60%29.30 "HgN/A
11:20 PM34 °FLight freezing rain. Passing clouds.43 mph70%29.27 "Hg1 mi
10:50 PM36 °FSprinkles. Passing clouds.45 mph60%29.27 "HgN/A
10:20 PM36 °FPassing clouds.38 mph60%29.24 "HgN/A
9:50 PM36 °FLight freezing rain. Passing clouds.37 mph65%29.24 "HgN/A
9:20 PM34 °FLight snow. Fog.38 mph75%29.24 "Hg1 mi
8:50 PM34 °FFreezing rain. Passing clouds.41 mph81%29.21 "Hg1 mi
8:20 PM36 °FLight freezing rain. Passing clouds.37 mph70%29.21 "Hg2 mi
7:50 PM34 °FLight freezing rain. Passing clouds.45 mph81%29.18 "Hg2 mi
7:20 PM34 °FLight freezing rain. Fog.40 mph75%29.18 "Hg3 mi
6:50 PM34 °FLight rain. Passing clouds.38 mph75%29.18 "Hg3 mi
6:20 PM36 °FLight rain. Passing clouds.45 mph70%29.15 "Hg6 mi
5:50 PM34 °FLight freezing rain. Passing clouds.40 mph75%29.12 "Hg4 mi
5:20 PM34 °FLight snow. Passing clouds.29 mph75%29.12 "Hg6 mi
4:50 PM34 °FSnow. Passing clouds.37 mph81%29.12 "Hg1 mi
4:20 PM32 °FFreezing rain. Partly sunny.32 mph93%29.09 "Hg1 mi
3:50 PM34 °FLight freezing rain. Partly sunny.31 mph81%29.09 "Hg3 mi
3:20 PM34 °FSprinkles. Partly sunny.35 mph81%29.06 "Hg2 mi
2:50 PM36 °FLight rain. Partly sunny.38 mph75%29.06 "Hg4 mi
2:20 PM34 °FLight freezing rain. Partly sunny.40 mph81%29.06 "Hg4 mi
1:50 PM36 °FSprinkles. Partly sunny.43 mph70%29.03 "Hg6 mi
1:20 PM34 °FSprinkles. Partly sunny.36 mph87%29.03 "Hg2 mi
12:50 PM36 °FSprinkles. Partly sunny.40 mph70%29.00 "HgN/A
12:20 PM34 °FSleet. Partly sunny.41 mph81%29.00 "Hg2 mi
11:50 AM34 °FSprinkles. Partly sunny.38 mph81%29.00 "Hg1 mi
11:20 AM32 °FLight snow. Partly sunny.43 mph93%29.00 "Hg1 mi
10:50 AM34 °FLight freezing rain. Partly sunny.44 mph75%29.00 "Hg6 mi
10:20 AM32 °FSleet. Broken clouds.46 mph93%29.00 "Hg1 mi
9:50 AM34 °FLight freezing rain. Partly sunny.44 mph81%28.97 "HgN/A
9:20 AM32 °FLight freezing rain. Partly sunny.45 mph93%28.97 "Hg1 mi
8:50 AM34 °FLight freezing rain. Passing clouds.37 mph81%28.97 "Hg2 mi
8:20 AM34 °FLight rain. Passing clouds.43 mph81%28.94 "Hg2 mi
7:50 AM34 °FPassing clouds.45 mph81%28.94 "HgN/A
7:20 AM34 °FLight snow. Passing clouds.38 mph87%28.94 "Hg1 mi
6:50 AM34 °FLight snow. Fog.40 mph81%28.91 "Hg2 mi
6:20 AM34 °FLight snow. Passing clouds.35 mph87%28.91 "Hg1 mi
5:50 AM34 °FLight snow. Passing clouds.33 mph87%28.91 "Hg2 mi
5:20 AM34 °FSleet. Passing clouds.31 mph87%28.88 "Hg2 mi
4:50 AM34 °FLight snow. Overcast.32 mph87%28.88 "Hg3 mi
4:20 AM34 °FLight snow. Overcast.32 mph87%28.88 "Hg2 mi
3:20 AM34 °FLight freezing rain. Passing clouds.31 mph93%28.88 "Hg1 mi
2:50 AM34 °FLight snow. Passing clouds.25 mph93%28.88 "Hg4 mi
2:20 AM34 °FLight snow. Passing clouds.25 mph87%28.88 "Hg2 mi
1:50 AM36 °FLight freezing rain. Passing clouds.28 mph81%28.88 "HgN/A
1:20 AM36 °FSleet. Passing clouds.25 mph81%28.88 "Hg5 mi
Weather by CustomWeather, © 2014

See weather overviewHow to use our weather pages